CAPE
7 35 19 11 14 9 19 11 15 8 3 0 0 0 18 16 5 8 0 27 54 62 205 76 129 11 126 393 281 152 36 0 13 4 12 0 0 0 0 54 43 0 0 10 601
0 9 28 13 1 10 5 16 21 21 6 4 0 6 3 42 25 23 17 68 117 92 84 104 98 114 56 199 166 124 47 2 26 25 31 1 3 0 14 33 24 0 0 562 590
32 2 11 19 4 3 10 10 9 11 4 8 1 29 17 6 18 17 70 118 80 130 99 82 127 95 0 106 143 60 42 94 14 10 14 7 5 4 11 23 6 0 0 527 590
14 42 4 0 26 3 8 9 5 13 6 0 0 20 40 80 28 100 186 54 25 56 102 95 111 67 63 4 80 116 50 143 112 28 1 22 25 9 22 3 0 0 0 48 514
24 38 22 1 8 11 6 3 15 1 0 0 0 0 49 58 32 42 0 18 27 12 68 46 75 71 18 0 0 51 92 75 16 40 69 8 24 0 0 0 0 0 0 0 216
40 35 23 14 2 6 23 0 5 21 0 0 0 0 53 19 14 0 0 0 30 0 26 68 55 87 39 51 1 3 49 94 93 57 42 36 36 0 0 0 0 0 0 0 0
40 29 21 22 8 3 18 33 4 17 0 0 0 0 6 15 4 9 0 0 30 3 2 16 68 58 14 24 47 14 0 43 12 8 4 2 0 0 0 0 0 0 0 0 0
25 27 25 18 7 1 17 15 20 4 0 0 0 0 10 0 4 15 10 4 4 0 6 0 8 19 35 46 103 27 32 9 0 0 5 0 0 0 0 1 0 0 0 0 0
19 24 32 13 16 2 13 2 11 0 0 0 0 0 13 0 0 1 2 11 18 13 18 9 45 18 60 41 25 43 1 4 21 3 16 0 0 0 0 0 0 0 0 0 0
24 24 20 14 15 4 11 0 0 0 0 0 0 2 1 8 0 0 12 0 37 30 12 29 15 25 25 28 3 12 1 2 5 16 31 2 0 0 3 2 0 0 0 0 0
20 21 16 18 14 5 3 2 1 0 0 0 0 0 0 19 17 4 15 61 30 19 5 3 3 10 1 0 0 1 0 17 26 24 33 1 0 4 12 0 0 0 0 0 0
14 18 18 16 10 8 4 2 0 0 0 0 0 0 0 30 13 3 10 0 15 9 4 2 0 25 14 5 0 5 0 14 19 64 35 29 23 17 4 9 0 0 0 0 0
10 13 11 13 5 3 4 0 0 0 3 3 0 0 3 41 13 18 19 3 11 18 12 0 0 0 9 8 0 17 1 15 18 35 23 12 0 0 0 1 0 0 0 0 0
5 10 12 7 0 2 0 0 0 0 1 1 11 5 14 26 18 0 2 0 3 7 12 0 3 0 23 8 11 2 14 27 25 12 0 0 0 0 0 0 0 0 0 0 0
5 12 10 5 0 1 0 0 0 0 8 1 7 0 11 27 2 9 7 0 4 8 0 0 3 3 10 9 5 11 0 5 17 20 4 12 0 0 0 0 0 0 0 0 0
5 6 5 1 2 2 0 0 2 0 0 0 7 3 6 16 9 1 10 11 8 5 0 1 2 7 10 14 14 0 1 3 6 5 0 0 0 0 0 0 0 0 0 0 0
1 2 0 0 1 0 0 2 0 1 0 0 3 5 6 1 0 1 6 5 5 1 0 1 1 1 2 5 0 13 10 4 2 2 2 0 0 0 0 0 0 0 0 0 0
0 1 0 1 0 0 2 0 0 1 0 1 2 1 6 0 0 2 1 2 4 12 0 0 0 3 1 4 0 0 9 0 0 0 0 0 0 0 0 0 0 0 0 0 0
0 1 2 0 0 1 1 0 1 1 3 0 0 4 3 1 1 6 0 15 15 11 5 1 0 0 3 0 0 0 1 0 0 0 0 1 0 0 0 0 0 0 0 0 0
0 2 3 0 0 8 3 1 2 0 2 0 3 1 5 2 4 2 4 4 2 0 0 0 0 8 0 0 0 12 0 0 0 0 0 0 0 0 0 0 0 0 0 0 0
1 11 1 0 3 6 2 3 0 1 0 0 1 1 3 0 2 0 1 2 0 0 0 7 1 8 3 11 8 0 0 10 9 0 2 0 0 0 0 0 0 0 0 0 0
9 1 0 0 3 4 0 2 0 1 9 3 4 5 3 0 0 1 4 7 9 3 2 0 3 0 0 1 0 2 12 12 4 0 0 0 0 0 0 0 0 0 0 0 0
1 1 0 2 5 4 0 0 1 1 1 3 0 1 0 5 0 6 9 0 4 3 0 0 1 1 0 0 0 1 0 0 7 6 7 3 0 0 0 0 0 0 0 0 0
9 0 2 3 1 3 8 7 2 0 0 0 0 0 0 2 0 2 6 0 0 2 0 0 0 2 0 0 0 0 0 0 0 0 0 0 0 0 0 0 0 0 0 0 0
0 3 0 0 0 2 0 6 5 3 0 0 0 0 0 1 4 2 1 3 1 0 0 1 0 0 0 0 0 0 0 0 3 0 2 0 4 6 0 0 0 0 0 0 0
0 0 0 3 0 2 0 8 8 0 7 0 0 0 0 4 0 3 1 6 1 1 2 0 0 0 0 0 0 0 0 0 9 6 8 5 3 0 0 0 0 0 0 0 0
0 0 0 0 0 10 4 0 0 2 3 2 2 5 0 0 0 0 0 2 3 4 11 8 0 0 2 0 0 0 0 0 0 0 0 0 1 0 0 0 0 0 0 0 0
CIN
-0 -0 -0 -1 -0 -0 -0 -0 -0 -0 -0 -0 -0 -0 -5 -15 -8 -9 -0 -1 -1 -3 -9 -1 -1 -27 -21 -0 -1 -1 -4 -0 -18 -21 -17 -0 -38 -0 -0 -77 -70 -0 -0 -180 -138
-0 -0 -0 -0 -0 -0 -0 -0 -0 -0 -0 -0 -0 -28 -21 -6 -1 -0 -2 -4 -8 -22 -29 -5 -0 -1 -15 -3 -8 -1 -2 -24 -31 -4 -10 -39 -93 -0 -78 -87 -97 -0 -0 -102 -101
-0 -7 -0 -1 -0 -0 -0 -0 -0 -0 -0 -0 -0 -9 -34 -27 -1 -0 -17 -11 -3 -27 -10 -8 -2 -1 -0 -9 -3 -8 -10 -8 -18 -17 -20 -83 -101 -102 -50 -31 -19 -0 -0 -83 -78
-0 -0 -1 -0 -0 -0 -0 -0 -0 -0 -0 -0 -0 -33 -32 -0 -0 -9 -5 -20 -24 -8 -25 -24 -3 -1 -0 -5 -5 -0 -3 -9 -2 -12 -0 -20 -81 -42 -30 -15 -0 -0 -0 -174 -64
-0 -0 -1 -5 -0 -0 -0 -0 -0 -0 -0 -0 -0 -0 -18 -10 -1 -8 -0 -23 -41 -30 -1 -5 -23 -1 -2 -21 -0 -3 -2 -6 -60 -31 -25 -22 -21 -0 -8 -0 -0 -0 -0 -0 -98
-0 -0 -0 -1 -1 -0 -0 -0 -0 -0 -0 -0 -0 -0 -0 -20 -44 -0 -0 -2 -7 -8 -1 -5 -2 -1 -4 -5 -13 -0 -3 -7 -9 -1 -28 -11 -18 -0 -0 -0 -0 -0 -0 -0 -0
-0 -0 -0 -1 -4 -0 -0 -0 -0 -0 -0 -0 -0 -0 -41 -8 -11 -0 -0 -0 -5 -18 -0 -6 -3 -2 -18 -2 -9 -5 -0 -1 -9 -1 -7 -23 -0 -0 -0 -0 -0 -0 -0 -0 -0
-0 -0 -1 -1 -4 -0 -0 -0 -0 -0 -0 -0 -0 -0 -1 -0 -1 -27 -1 -1 -11 -5 -13 -0 -8 -31 -8 -4 -0 -2 -4 -0 -0 -0 -1 -0 -0 -0 -0 -9 -0 -0 -0 -0 -0
-1 -0 -0 -2 -6 -1 -0 -0 -0 -0 -0 -0 -0 -0 -0 -0 -0 -2 -4 -1 -4 -6 -2 -2 -6 -1 -4 -2 -1 -2 -2 -2 -1 -1 -1 -0 -0 -3 -0 -0 -0 -0 -0 -0 -0
-0 -1 -1 -1 -6 -2 -3 -0 -0 -0 -0 -0 -0 -0 -1 -1 -0 -0 -2 -8 -0 -0 -0 -0 -0 -3 -2 -2 -1 -2 -3 -0 -1 -0 -1 -0 -0 -0 -8 -22 -0 -0 -0 -0 -0
-1 -1 -2 -6 -4 -1 -2 -1 -0 -0 -0 -0 -0 -0 -0 -1 -10 -26 -4 -1 -2 -0 -0 -0 -0 -1 -2 -0 -0 -4 -0 -3 -1 -1 -0 -0 -0 -1 -2 -3 -0 -0 -0 -0 -8
-1 -2 -3 -2 -4 -3 -1 -0 -0 -0 -0 -0 -0 -0 -0 -5 -0 -0 -2 -0 -0 -0 -0 -0 -0 -6 -8 -6 -3 -2 -0 -10 -1 -1 -0 -0 -0 -1 -2 -1 -0 -0 -0 -0 -0
-3 -4 -4 -3 -0 -3 -1 -0 -0 -0 -0 -0 -0 -0 -1 -8 -0 -0 -0 -0 -0 -0 -0 -0 -0 -0 -4 -1 -11 -2 -1 -3 -3 -2 -2 -7 -0 -0 -0 -0 -0 -0 -0 -0 -0
-3 -3 -2 -1 -0 -1 -0 -0 -0 -0 -2 -0 -0 -1 -1 -5 -1 -0 -2 -0 -3 -0 -0 -0 -0 -0 -2 -11 -25 -23 -3 -8 -2 -1 -0 -33 -0 -0 -0 -0 -0 -0 -0 -0 -0
-2 -1 -3 -2 -0 -0 -0 -0 -0 -0 -0 -1 -0 -0 -10 -0 -0 -3 -0 -0 -0 -0 -0 -0 -0 -0 -2 -13 -8 -14 -0 -1 -1 -2 -1 -2 -0 -0 -0 -0 -0 -0 -0 -0 -0
-0 -3 -4 -2 -0 -0 -0 -0 -0 -0 -0 -0 -0 -0 -0 -0 -0 -2 -0 -3 -1 -2 -0 -0 -1 -1 -1 -3 -3 -2 -12 -1 -1 -2 -0 -0 -0 -0 -0 -0 -0 -0 -0 -0 -0
-3 -1 -0 -0 -0 -0 -0 -0 -0 -0 -0 -0 -0 -0 -0 -0 -0 -0 -0 -0 -0 -0 -0 -0 -0 -0 -11 -3 -8 -6 -16 -1 -0 -2 -1 -0 -0 -0 -0 -0 -0 -0 -0 -0 -0
-0 -3 -0 -0 -0 -0 -1 -0 -0 -0 -0 -1 -0 -1 -0 -0 -0 -0 -0 -0 -0 -1 -0 -0 -0 -0 -0 -3 -0 -0 -1 -0 -0 -0 -0 -0 -0 -0 -0 -0 -0 -0 -0 -0 -0
-0 -1 -0 -0 -0 -0 -0 -0 -0 -0 -0 -0 -0 -0 -0 -1 -7 -0 -0 -0 -0 -3 -11 -7 -0 -0 -1 -0 -0 -0 -0 -0 -0 -0 -0 -1 -0 -0 -0 -0 -0 -0 -0 -0 -0
-1 -0 -0 -0 -0 -0 -0 -0 -0 -0 -0 -0 -1 -1 -0 -1 -1 -0 -0 -0 -12 -9 -0 -1 -0 -0 -0 -0 -0 -3 -2 -0 -0 -0 -0 -0 -0 -0 -0 -0 -0 -0 -0 -0 -0
-0 -0 -0 -0 -0 -0 -1 -0 -0 -1 -0 -0 -1 -0 -1 -0 -0 -0 -0 -1 -4 -0 -0 -1 -0 -0 -0 -0 -1 -0 -0 -5 -2 -0 -2 -0 -0 -0 -0 -0 -0 -0 -0 -0 -0
-0 -0 -0 -0 -0 -0 -0 -0 -0 -0 -0 -0 -0 -2 -1 -0 -0 -1 -1 -0 -0 -0 -0 -0 -1 -0 -1 -0 -0 -5 -1 -2 -1 -0 -0 -0 -0 -0 -0 -0 -0 -0 -0 -0 -0
-0 -0 -0 -0 -0 -0 -0 -0 -0 -1 -0 -0 -0 -0 -0 -0 -0 -0 -0 -0 -0 -0 -0 -0 -1 -0 -0 -0 -0 -0 -0 -0 -1 -12 -1 -1 -0 -0 -0 -0 -0 -0 -0 -0 -0
-0 -0 -3 -1 -1 -0 -0 -0 -0 -0 -0 -0 -0 -0 -0 -0 -0 -0 -0 -0 -3 -0 -0 -0 -0 -2 -3 -0 -0 -0 -0 -0 -0 -0 -0 -0 -0 -0 -0 -0 -0 -0 -0 -0 -0
-0 -0 -0 -0 -0 -0 -0 -1 -0 -0 -0 -0 -0 -0 -0 -0 -0 -0 -0 -0 -0 -0 -0 -0 -0 -0 -0 -0 -0 -0 -0 -0 -2 -0 -1 -0 -2 -1 -0 -0 -0 -0 -0 -0 -0
-0 -0 -0 -0 -0 -0 -0 -0 -0 -0 -2 -0 -0 -0 -0 -1 -0 -0 -0 -0 -0 -0 -0 -0 -0 -0 -0 -0 -0 -0 -0 -0 -1 -1 -1 -1 -1 -0 -0 -0 -0 -0 -0 -0 -0
-0 -0 -0 -0 -0 -1 -0 -0 -0 -5 -9 -2 -6 -1 -0 -0 -0 -0 -0 -3 -0 -1 -0 -0 -0 -0 -0 -0 -0 -0 -0 -0 -0 -0 -0 -0 -0 -0 -0 -0 -0 -0 -0 -0 -0
Wind_Speed
26 24 24 24 23 21 22 25 28 26 24 23 22 19 13 20 24 24 29 30 34 24 27 31 32 31 32 34 32 27 36 47 40 38 34 29 31 23 24 23 22 21 21 20 14
27 24 26 23 21 20 21 24 28 26 25 23 21 18 12 21 27 28 30 24 28 26 28 31 33 30 32 35 32 36 38 39 31 24 26 25 27 27 23 23 21 20 19 18 16
27 24 25 25 19 18 20 22 25 24 24 24 20 19 11 20 24 25 20 23 30 23 28 29 33 33 37 32 33 35 45 28 31 23 19 21 22 23 25 24 22 21 20 19 19
26 25 24 22 20 18 17 21 24 23 22 21 21 18 14 9 14 19 18 21 25 23 25 29 35 36 39 42 31 36 38 28 20 17 25 23 21 22 24 21 19 18 19 18 21
26 25 24 23 19 17 16 18 21 20 19 19 18 17 11 7 18 15 17 20 26 26 29 32 35 35 45 41 41 36 36 31 21 20 21 25 23 29 27 22 21 22 20 18 21
25 24 23 22 20 16 16 16 17 18 17 17 16 16 11 6 18 20 19 20 27 27 29 31 33 33 37 35 40 32 30 35 27 28 23 27 28 27 29 25 24 22 22 19 18
24 23 22 22 20 16 14 17 15 16 14 15 15 14 12 11 20 21 21 22 27 34 32 31 30 32 30 35 36 45 37 32 35 30 30 26 35 42 37 30 28 29 24 24 21
24 21 21 21 19 15 13 14 15 14 13 14 14 13 12 17 22 22 22 27 27 31 32 30 30 33 30 28 32 28 31 36 34 31 34 26 43 40 40 42 39 33 32 26 26
21 21 21 20 17 15 13 13 13 12 13 12 12 14 13 13 15 22 24 27 31 31 35 27 29 27 27 36 37 33 34 35 25 27 27 31 37 33 38 40 46 38 34 32 25
20 21 21 19 17 16 13 12 13 11 13 12 11 14 11 12 15 19 22 27 30 34 35 25 26 31 31 35 45 42 38 29 26 26 28 30 34 27 29 36 44 44 38 34 32
19 20 20 18 17 16 13 14 15 16 14 18 18 15 13 14 13 16 16 22 31 29 30 18 27 36 33 34 32 37 34 26 26 22 28 30 31 31 26 28 33 43 47 40 36
19 19 19 17 17 15 12 14 17 16 18 17 16 14 15 14 15 15 18 21 33 36 20 19 25 26 25 29 27 30 32 25 22 19 30 32 33 36 31 33 32 31 40 41 37
18 18 17 16 16 14 12 14 15 15 17 19 17 16 12 13 14 15 15 25 31 30 27 23 22 27 23 26 26 26 29 23 24 21 23 26 33 37 34 34 31 32 29 35 38
17 17 14 16 17 16 16 15 15 15 18 20 18 16 14 15 15 15 11 19 23 25 22 24 17 25 20 23 23 27 26 21 21 24 31 25 29 33 29 31 29 31 32 30 33
16 14 12 13 17 16 16 16 16 16 22 19 19 9 14 14 15 14 13 17 24 20 25 23 25 22 22 20 18 21 21 22 21 25 27 26 30 31 19 29 33 30 31 30 27
16 14 15 16 15 17 16 16 16 19 24 20 18 18 18 14 14 14 14 21 18 18 17 23 20 22 21 16 18 14 17 18 20 23 35 32 30 31 25 22 25 29 28 30 29
18 18 16 17 17 17 16 16 20 23 18 21 21 21 17 14 14 14 15 16 23 29 16 14 19 18 21 15 13 13 17 20 23 26 29 21 27 29 19 21 22 25 25 27 28
17 17 18 17 18 17 16 18 26 21 20 19 21 23 24 12 13 14 13 19 20 26 23 16 17 16 17 21 20 22 21 20 25 27 25 19 27 23 18 18 20 20 22 27 27
16 16 18 18 18 16 17 24 22 19 20 21 22 23 24 11 14 14 13 18 19 21 26 17 14 18 20 17 19 26 32 20 21 18 19 19 21 26 17 16 17 18 19 21 23
15 16 17 16 16 16 19 23 20 19 18 20 20 22 25 25 18 16 16 18 18 20 19 17 16 19 17 19 16 20 16 20 20 20 22 18 22 19 13 13 12 14 16 18 20
15 16 16 16 15 17 23 22 19 19 19 19 20 24 25 24 17 14 14 13 15 18 19 20 18 16 18 20 17 18 19 20 19 19 20 19 14 15 10 11 12 14 17 21 23
14 17 15 15 19 20 22 19 19 19 18 20 19 20 23 16 16 15 14 12 13 12 17 17 15 19 22 21 21 25 23 21 22 20 22 21 20 16 12 15 15 18 22 26 25
15 16 15 14 21 20 20 20 18 18 17 18 19 20 17 16 16 13 13 13 14 15 16 17 15 15 21 27 26 27 26 24 26 24 22 23 18 17 17 20 20 23 28 30 27
14 17 16 14 14 19 21 20 21 18 18 17 19 21 20 14 15 13 12 13 14 15 15 17 16 21 20 18 15 24 31 28 30 29 23 26 32 29 25 28 30 34 37 35 35
12 15 16 16 15 17 18 19 20 20 18 15 15 17 18 9 12 14 13 14 17 17 17 17 13 15 16 15 17 21 24 22 21 21 27 29 32 30 32 35 39 41 40 39 36
12 14 15 17 19 18 18 19 19 19 17 17 16 11 17 12 13 14 14 16 17 21 19 18 16 15 17 17 18 21 20 21 23 24 31 34 37 35 35 30 37 37 38 38 37
10 14 15 16 17 17 18 19 18 19 18 19 16 11 10 11 12 11 12 13 16 16 18 18 16 17 20 21 23 27 27 27 25 25 28 33 30 30 31 31 33 34 35 35 35
Wind_Direction
8 10 9 11 11 14 12 5 0 8 12 14 16 22 33 303 259 259 252 249 241 253 243 237 234 232 233 231 232 235 235 232 235 235 236 240 239 248 253 251 254 255 258 264 265
9 9 9 10 13 16 13 7 2 9 13 14 17 22 36 293 251 254 246 259 244 246 237 230 227 224 227 229 231 230 234 231 236 244 238 241 241 239 247 245 249 255 263 261 251
8 10 7 10 14 18 15 8 3 10 14 18 23 26 45 302 274 257 267 260 239 250 238 235 230 225 225 228 227 230 229 238 234 243 245 245 241 244 240 244 249 253 263 256 247
7 10 10 8 12 15 16 10 1 9 15 22 25 28 37 22 312 276 281 260 243 249 237 232 227 223 224 225 229 231 230 236 238 248 239 244 243 244 245 244 254 261 268 260 249
8 9 10 10 8 11 15 10 7 11 16 22 26 25 37 47 295 291 284 269 240 237 233 227 225 225 225 226 228 238 229 231 226 249 244 243 248 245 248 251 262 262 264 268 254
7 10 11 9 11 10 15 12 13 14 20 23 25 28 37 44 298 283 277 264 237 230 233 228 227 225 230 229 226 236 234 230 238 243 250 246 250 255 247 258 258 264 260 266 265
8 10 11 10 13 15 17 16 17 18 25 27 28 34 37 26 292 281 270 254 231 223 227 229 234 229 232 226 225 226 234 240 240 243 252 258 254 246 246 256 256 256 264 261 265
9 11 11 11 15 17 20 19 21 27 31 34 37 41 36 352 280 271 261 239 232 227 226 231 236 231 232 228 224 227 236 236 240 243 249 252 249 253 250 250 251 255 257 264 260
10 11 11 13 17 19 22 25 27 38 39 44 48 44 42 155 274 267 248 233 228 220 210 228 226 226 226 220 221 224 228 236 234 238 247 246 252 256 250 248 246 251 256 257 263
11 12 12 16 19 22 27 32 39 50 53 59 68 51 260 44 25 238 239 230 212 204 208 221 224 220 220 215 218 222 230 236 238 240 244 249 251 264 260 253 246 247 254 257 258
12 14 14 20 24 26 39 47 46 48 53 41 42 51 280 252 116 242 246 221 210 204 208 228 212 212 213 218 228 228 231 239 242 249 240 252 252 259 264 260 254 249 246 253 256
13 15 18 24 24 33 56 50 43 51 44 54 58 72 250 229 233 223 217 216 207 202 206 212 213 215 218 223 234 228 225 236 244 250 239 247 250 251 260 259 258 258 248 252 257
17 18 22 28 31 43 63 57 62 63 50 49 60 71 265 229 212 213 217 214 197 207 215 216 229 222 218 221 225 227 226 233 240 244 253 253 260 255 259 257 259 257 264 256 257
20 22 31 36 46 51 54 69 69 68 49 47 55 78 218 229 207 217 243 203 209 207 215 221 240 223 211 218 225 224 231 238 243 241 244 254 258 247 258 256 260 258 259 263 262
24 27 41 58 50 55 62 73 72 74 37 47 56 193 232 225 216 215 216 217 205 206 210 217 216 220 216 218 227 233 234 239 248 250 255 253 257 261 269 259 258 260 263 264 268
30 40 60 67 59 55 80 80 80 51 42 53 72 104 148 213 214 223 218 203 204 205 224 233 223 225 224 223 242 236 231 242 253 256 249 255 257 263 268 277 273 268 268 266 266
43 58 73 70 61 70 82 75 50 46 65 58 76 108 170 196 219 220 213 206 209 199 220 214 226 231 226 221 240 229 218 240 248 252 254 270 261 264 287 290 286 278 273 271 271
59 67 69 68 66 76 74 62 43 61 67 79 87 109 134 218 222 223 224 217 214 213 208 219 221 221 229 229 239 233 231 247 249 251 254 270 265 277 297 300 296 295 288 275 274
75 75 71 72 71 75 72 46 50 70 73 83 92 116 124 230 208 223 228 214 222 221 218 234 245 235 229 241 244 236 237 261 258 269 265 275 279 280 296 306 305 307 301 292 286
75 79 71 77 77 80 65 57 66 77 91 93 84 128 127 149 197 215 221 216 219 225 233 244 239 238 240 249 258 245 246 250 259 260 268 280 282 291 301 308 322 321 321 316 306
83 65 76 82 86 78 59 67 82 85 86 92 99 117 143 167 204 222 228 222 228 228 237 234 240 244 228 243 246 249 251 256 262 269 274 279 293 311 318 324 324 324 320 316 314
81 56 85 95 66 72 67 87 92 94 99 81 113 125 163 224 221 228 226 242 243 241 234 246 247 238 239 250 255 252 255 258 263 273 272 280 286 314 306 310 312 312 313 310 309
65 68 94 96 64 71 79 88 98 104 96 101 96 126 215 236 235 245 243 249 238 235 237 241 249 243 249 246 249 250 252 260 259 269 274 276 289 315 300 296 302 299 300 303 307
71 58 79 91 102 83 82 80 89 110 103 84 101 107 124 256 251 253 255 252 245 249 250 247 248 248 255 264 268 256 246 255 256 263 281 278 276 284 297 291 291 291 292 294 294
80 63 79 82 97 93 86 91 88 94 116 74 86 177 130 132 266 260 260 251 248 249 253 258 279 268 270 279 278 272 265 269 273 279 278 282 283 292 291 291 289 290 293 295 297
60 67 95 88 100 97 90 90 90 102 120 118 96 310 231 34 275 261 258 258 260 248 254 263 281 287 286 290 292 286 289 283 280 283 279 279 280 293 295 301 299 299 297 297 297
71 95 104 95 103 101 92 98 100 110 115 124 98 6 3 326 275 278 273 272 278 275 269 278 286 288 284 290 288 281 282 280 284 289 288 283 294 305 305 307 307 306 305 303 302